Regional Weather Roundup
Issued by NWS

Home | Current Version | Previous Version | Graphics & Text | Print | Product List | Glossary On
Versions: 1 2 3 4 5 6 7 8 9 10 11 12 13 14 15 16 17 18 19 20 21 22 23 24 25 26 27 28 29 30 31 32 33 34 35 36 37 38 39 40 41 42 43 44 45 46 47 48 49 50
000
ASUS43 KDTX 271201
RWRMI
MICHIGAN HOURLY REGIONAL WEATHER ROUNDUP
NATIONAL WEATHER SERVICE DETROIT/PONTIAC MI
800 AM EDT FRI MAR 27 2015

NOTE: "FAIR" INDICATES FEW OR NO CLOUDS BELOW 12,000 FEET WITH NO
SIGNIFICANT WEATHER AND/OR OBSTRUCTION TO VISIBILITY.

MIZ047>049-052>055-059>063-066>070-074>076-081>083-271300-
SOUTHEAST LOWER MICHIGAN

CITY           SKY/WX    TMP DP  RH WIND       PRES   REMARKS
ADRIAN         CLOUDY    22  13  68 N14       30.01R WCI   9
6HR MIN TEMP:  22; 6HR MAX TEMP:  32;

ALMA           CLOUDY    20   8  60 NW15G22   30.05S WCI   7
ANN ARBOR      CLOUDY    21  10  62 N14G21    30.00R WCI   8
BAD AXE        LGT SNOW  20  17  84 N15       29.99R VSB 1   WCI   7
CARO           FLURRIES  20  15  79 NW16G22   30.00S WCI   6
DETROIT CITY   MOCLDY    24  11  57 NW10      29.99R WCI  14
6HR MIN TEMP:  24; 6HR MAX TEMP:  34;

DETROIT        FLURRIES  23  12  62 NW12      30.00R WCI  12
6HR MIN TEMP:  23; 6HR MAX TEMP:  34; 6HR PCP: TRACE;

FLINT          CLOUDY    21  12  68 NW16      30.01R WCI   7
6HR MIN TEMP:  21; 6HR MAX TEMP:  27; 6HR PCP: TRACE;

GROSSE ILE     CLOUDY    23  14  68 NW15      29.98R WCI  10
HILLSDALE      CLOUDY    22  14  72 NW10      29.98S WCI  11
HOWELL         CLOUDY    20  12  70 NW13G21   30.00R WCI   8
6HR MIN TEMP:  20; 6HR MAX TEMP:  28;


CITY           SKY/WX    TMP DP  RH WIND       PRES   REMARKS
JACKSON        CLOUDY    20  10  65 N12       30.01R WCI   8
6HR MIN TEMP:  20; 6HR MAX TEMP:  30;

LAMBERTVILLE   MOCLDY    27  14  59 N13G20    30.01R WCI  16
LANSING        CLOUDY    20   9  62 NW12      30.03S WCI   8
6HR MIN TEMP:  20; 6HR MAX TEMP:  27; 6HR PCP: TRACE;

LAPEER         LGT SNOW  19  16  86 NW9       29.99R WCI   9
MASON          CLOUDY    20  11  68 NW13G20   30.02R WCI   7
MONROE         FLURRIES  25  16  68 N15       29.98S WCI  12
MT. CLEMENS    FLURRIES  22  14  71 NW10G20   29.94F WCI  11
6HR MIN TEMP:  22; 6HR MAX TEMP:  31; 6HR PCP: TRACE;

PONTIAC        FLURRIES  20  12  71 NW16G22   29.97R WCI   6
6HR MIN TEMP:  20; 6HR MAX TEMP:  28; 6HR PCP: TRACE;

PORT HOPE        N/A     22  15  75 N14G22    29.98R WCI   9
6HR MIN TEMP:  22; 6HR MAX TEMP:  26; 6HR PCP:  0.01;

PORT HURON     FLURRIES  21  16  79 NW9       29.96S WCI  11
TRI CITIES     CLOUDY    21  10  62 NW16      30.04R WCI   7
6HR MIN TEMP:  21; 6HR MAX TEMP:  23; 6HR PCP: TRACE;

TROY           CLOUDY    23  12  63 NW9       30.00S WCI  13
SAGINAW HB     CLOUDY    21  14  73 NW13      30.03S WCI   9
$$
MIZ043>046-050>051-056>058-064>065-071>073-077>080-271300-
SOUTHWEST LOWER MICHIGAN

CITY           SKY/WX    TMP DP  RH WIND       PRES   REMARKS
BATTLE CREEK   FAIR      20  10  65 NW10      30.04R WCI   9
6HR MIN TEMP:  20; 6HR MAX TEMP:  29;

BENTON HARBOR  CLOUDY    22  15  75 VRB5      30.09S WCI  16
6HR MIN TEMP:  22; 6HR MAX TEMP:  27; 6HR PCP: TRACE;

BIG RAPIDS     CLEAR     16   3  55 N10       30.07R WCI   4
6HR MIN TEMP:  16; 6HR MAX TEMP:  21;

COLDWATER      CLEAR     20  12  71 NW10G16   30.03R WCI   9
6HR MIN TEMP:  20; 6HR MAX TEMP:  31;

FREMONT        FAIR      19   1  46 N13G22    30.10R WCI   6
HOLLAND        CLOUDY    22  11  62 N5        30.10R WCI  16
6HR MIN TEMP:  22; 6HR MAX TEMP:  27;

GRAND RAPIDS   MOCLDY    21   7  54 N16       30.07R WCI   7
6HR MIN TEMP:  19; 6HR MAX TEMP:  24;

IONIA          CLOUDY    21   8  56 N7        30.04S WCI  13
KALAMAZOO      PTCLDY    20  10  65 N9        30.06R WCI   9
6HR MIN TEMP:  19; 6HR MAX TEMP:  30;

LUDINGTON      MOCLDY    18   3  50 NE9       30.14R WCI   7
6HR MIN TEMP:  18; 6HR MAX TEMP:  23;

MARSHALL       CLOUDY    20  12  71 NW7       30.03R WCI  11
MOUNT PLEASANT CLOUDY    18   7  62 NW10G16   30.06R WCI   6
6HR MIN TEMP:  18; 6HR MAX TEMP:  21;

MUSKEGON       CLOUDY    22  10  60 N15       30.12R WCI   9
6HR MIN TEMP:  20; 6HR MAX TEMP:  23;

SOUTH HAVEN    CLOUDY    24  11  59 N9G17     30.09R WCI  14
$$
MIZ016>042-271300-
NORTHERN LOWER MICHIGAN

CITY           SKY/WX    TMP DP  RH WIND       PRES   REMARKS
ALPENA         CLOUDY    14   4  64 N13       30.08R WCI   0
6HR MIN TEMP:  14; 6HR MAX TEMP:  22; 6HR PCP: TRACE;

BEAVER ISLAND  PTCLDY     8   3  78 N9        30.17R WCI  -5
6HR MIN TEMP:   8; 6HR MAX TEMP:  17;

BELLAIRE       CLEAR     11   5  76 CALM      30.14R
6HR MIN TEMP:  11; 6HR MAX TEMP:  20;

CADILLAC       CLEAR     10   4  74 NW7       30.05R WCI   0
CHARLEVOIX     CLEAR     11   5  76 N10G16    30.17R WCI  -2
6HR MIN TEMP:  11; 6HR MAX TEMP:  18;

FRANKFORT      MOCLDY    18  -1  43 E6        30.15R WCI  10
GAYLORD        CLEAR      7   1  76 VRB5      30.05R WCI  -2
6HR MIN TEMP:   7; 6HR MAX TEMP:  15; 6HR PCP: TRACE;

GRAYLING       FAIR      11   3  71 NW8       30.06R WCI  -1
6HR MIN TEMP:  11; 6HR MAX TEMP:  17;

HARBOR SPRINGS CLEAR      8   1  74 NW3       30.13R
HOUGHTON LAKE  LGT SNOW  14   7  73 N9        30.05R WCI   2
6HR MIN TEMP:  14; 6HR MAX TEMP:  17; 6HR PCP: TRACE;

MANISTEE       PTCLDY    16   0  48 NE12      30.14R WCI   3
OSCODA         CLOUDY    18  10  71 N17       30.04R WCI   2
PELLSTON       CLEAR      6  -1  73 NW10      30.14R WCI  -9
6HR MIN TEMP:   4; 6HR MAX TEMP:  17; 6HR PCP: TRACE;

ROGERS CITY    MOCLDY    14   8  77 N8G16     30.10R WCI   3
TRAVERSE CITY  PTCLDY    14   6  70 N8        30.13R WCI   3
6HR MIN TEMP:  14; 6HR MAX TEMP:  21; 6HR PCP: TRACE;

$$
MIZ007>008-015-271300-
EASTERN UPPER MICHIGAN

CITY           SKY/WX    TMP DP  RH WIND       PRES   REMARKS
KINROSS        CLEAR      0  -2  92 N8        30.13R WCI -15
6HR MIN TEMP:   0; 6HR MAX TEMP:  12;

MACKINAC ISLAN CLEAR      8   0  72 N14G20    30.12R WCI  -9
6HR MIN TEMP:   7; 6HR MAX TEMP:  17;

NEWBERRY       CLOUDY     2  -1  88 N7        30.16R WCI -11
6HR MIN TEMP:   1; 6HR MAX TEMP:  10;

S. S. MARIE    CLEAR      4  -5  66 N9        30.14R WCI -10
6HR MIN TEMP:   4; 6HR MAX TEMP:  14;

$$
MIZ004>006-011>014-085-271300-
CENTRAL UPPER MICHIGAN

CITY           SKY/WX    TMP DP  RH WIND       PRES   REMARKS
MANISTIQUE     CLEAR      5   0  80 N8        30.19R WCI  -8
ESCANABA       MOCLDY    12   7  79 NE8       30.20R WCI   1
6HR MIN TEMP:  12; 6HR MAX TEMP:  16;

MENOMINEE      CLEAR     12   3  67 NW7       30.18S WCI   2
6HR MIN TEMP:  12; 6HR MAX TEMP:  18;

$$
MIZ001>003-009>011-084-271300-
WESTERN UPPER MICHIGAN

CITY           SKY/WX    TMP DP  RH WIND       PRES   REMARKS
IRON MOUNTAIN  CLEAR      7   1  76 N7        30.16R WCI  -5
6HR MIN TEMP:   5; 6HR MAX TEMP:  12;

HOUGHTON       CLEAR      5  -2  72 NE5       30.22R WCI  -4
6HR MIN TEMP:   4; 6HR MAX TEMP:  15; 6HR PCP: TRACE;

COPPER HARBOR    N/A      4  -2  76 E3        30.27R
6HR MIN TEMP:   1; 6HR MAX TEMP:  12;

IRONWOOD       CLOUDY    18   7  62 N8        30.19R WCI   7
6HR MIN TEMP:  18; 6HR MAX TEMP:  19;

$$

ABBREVIATIONS USED IN REMARKS
   TC - TEMPERATURE IN CELSIUS
  WCI - WIND CHILL INDEX
   HX - HEAT INDEX
  VSB - VISIBILITY




USA.gov is the U.S. government's official web portal to all federal, state and local government web resources and services.